{"data":{"norad_id":60374,"epoch":"2026-09-21T19:26:23.617248Z","epoch_age_seconds":72397,"freshness":"FRESH","line1":"1 60374U 24138V   26264.80999557  .00000137  00000+0  16187-4 0  9997","line2":"2 60374  53.1588 117.2845 0001212  84.4013 275.7127 15.31702874120671","mean_motion":15.31702874,"eccentricity":0.0001212,"inclination_deg":53.1588,"raan_deg":117.2845,"arg_perigee_deg":84.4013,"mean_anomaly_deg":275.7127,"bstar":1.6187e-5,"rev_number":12067,"period_min":94.0130115601,"perigee_km":469.90134514112,"apogee_km":471.56151084807,"semimajor_km":6848.8684279946,"source":"CELESTRAK","updated_at":"2026-09-22T09:00:49.227513Z"}}